Home > Weather > Hollywood > Past weeks

Flag for USA Past Weather in Hollywood, Florida, USA — Yesterday and Last 2 Weeks

Now
82 °F

Broken clouds.


Feels Like: 85 °F
Forecast: 76 / 84 °F
Wind: 5 mph from East

Location: Fort Lauderdale / Hollywood International Airport

Current Time: May 28, 2016 at 6:17:09 PM

Latest Report: May 28, 2016 at 4:53 PM


Visibility: 10 mi

Pressure: 29.97 "Hg

Humidity: 65%

Dew Point: 69 °F

Location of HollywoodLocation

Past Weather in Hollywood — Graph

°F

Hollywood Temperature Yesterday

Maximum temperature yesterday: 85 °F (at 10:53 AM)
Minimum temperature yesterday: 77 °F (at 4:53 AM)
Average temperature yesterday: 81 °F

High & Low Weather Summary for the Past Weeks

 TemperatureHumidityPressure
High91 °F (May 21, 12:53 PM)97% (May 19, 5:03 AM)30.18 "Hg (May 19, 5:03 AM)
Low71 °F (May 19, 6:53 AM)40% (May 15, 10:53 AM)29.84 "Hg (May 22, 6:53 PM)
Average81 °F70%30.01 "Hg
* Reported May 13 4:53 PM — May 28 4:53 PM, Hollywood, Weather by CustomWeather, © 2016

Note: Actual official high and low records may vary slightly from our data, if they occured in-between our weather recording intervals... More about our weather records

Advertising

Hollywood Weather History for the Previous 24 Hours

Scroll right to see more
 ConditionsComfort  
Time TempWeatherWind HumidityBarometerVisibility
4:53 PM
Sat, May 28
82 °FBroken clouds.5 mph65%29.97 "Hg10 mi
3:53 PM78 °FPartly sunny.5 mph79%29.98 "Hg10 mi
2:53 PM77 °FBroken clouds.No wind77%29.99 "Hg10 mi
1:53 PM73 °FLight rain. Broken clouds.No wind88%30.01 "Hg10 mi
12:53 PM74 °FLight rain. Broken clouds.6 mph85%30.05 "Hg9 mi
11:53 AM73 °FLight rain. Mostly cloudy.5 mph84%30.05 "Hg10 mi
10:53 AM74 °FLight rain. Cloudy.7 mph91%30.04 "Hg9 mi
9:53 AM72 °FStrong thunderstorms. Fog.9 mph93%30.03 "Hg2 mi
8:56 AM77 °FThunderstorms. Broken clouds.5 mph82%30.01 "Hg10 mi
7:53 AM76 °FScattered clouds.3 mph85%29.99 "Hg10 mi
6:53 AM76 °FPassing clouds.No wind82%29.96 "Hg10 mi
5:53 AM76 °FPartly cloudy.3 mph85%29.95 "Hg10 mi
4:53 AM77 °FPassing clouds.3 mph82%29.94 "Hg10 mi
3:53 AM78 °FPassing clouds.7 mph76%29.93 "Hg10 mi
2:53 AM78 °FPassing clouds.3 mph74%29.93 "Hg10 mi
1:53 AM79 °FPassing clouds.8 mph72%29.94 "Hg10 mi
12:53 AM80 °FPassing clouds.6 mph71%29.96 "Hg10 mi
11:53 PM
Fri, May 27
80 °FPassing clouds.7 mph71%29.96 "Hg10 mi
10:53 PM80 °FPassing clouds.9 mph71%29.96 "Hg10 mi
9:53 PM80 °FPartly cloudy.14 mph69%29.95 "Hg10 mi
8:53 PM80 °FScattered clouds.10 mph71%29.92 "Hg10 mi
7:53 PM80 °FBroken clouds.12 mph71%29.92 "Hg10 mi
6:53 PM81 °FBroken clouds.9 mph69%29.92 "Hg10 mi
Weather by CustomWeather, © 2016

See weather overviewHow to use our weather pages